When you browse on this site, cookies collect data to enhance your experience and personalize the content and advertising you see.
Visit our Privacy Policy to learn more. By continuing to use the site, you agree to this use of cookies and data.
  • In United Kingdom
  • List of Countries
  • For 7 days
  • Water Temperature
  • Satellite Maps
  • Weather Map
  • Weather Widgets
  • user-avatar
    Login

    Hourly Weather Top

    Today, 17 November, Saturday

    Time Temperature Precipitation Wind Pressure Humidity
    00:00 +21°C° 0 mm 1 mps 684 mmHg 92%
    01:00 +19°C° 0 mm 0 mps 684 mmHg 94%
    02:00 +19°C° 0 mm 0 mps 684 mmHg 94%
    03:00 +18°C° 0 mm 0 mps 684 mmHg 95%
    04:00 +18°C° 0 mm 0 mps 684 mmHg 95%
    05:00 +18°C° 0 mm 0 mps 684 mmHg 93%
    06:00 +19°C° 0 mm 0 mps 684 mmHg 91%
    07:00 +19°C° 0 mm 0 mps 685 mmHg 89%
    08:00 +22°C° 0 mm 0 mps 685 mmHg 76%
    09:00 +25°C° 0 mm 0 mps 686 mmHg 63%
    10:00 +28°C° 0 mm 0 mps 686 mmHg 50%
    11:00 +31°C° 0 mm 1 mps 686 mmHg 46%
    12:00 +32°C° 0 mm 1 mps 686 mmHg 42%
    13:00 +33°C° 0 mm 1 mps 685 mmHg 39%
    14:00 +31°C° 0 mm 1 mps 685 mmHg 44%
    15:00 +30°C° 0 mm 1 mps 684 mmHg 49%
    16:00 +28°C° 0 mm 1 mps 684 mmHg 55%
    17:00 +27°C° 0 mm 1 mps 684 mmHg 63%
    18:00 +25°C° 0 mm 1 mps 684 mmHg 71%
    19:00 +21°C° 0 mm 0 mps 684 mmHg 78%
    20:00 +21°C° 0 mm 0 mps 684 mmHg 81%
    21:00 +23°C° 0 mm 1 mps 684 mmHg 83%
    22:00 +22°C° 0 mm 1 mps 684 mmHg 86%
    23:00 +22°C° 0 mm 1 mps 684 mmHg 87%

    Tomorrow, 18 November, Sunday

    Time Temperature Precipitation Wind Pressure Humidity
    00:00 +20°C° 0 mm 0 mps 684 mmHg 88%
    01:00 +19°C° 0 mm 0 mps 684 mmHg 89%
    02:00 +19°C° 0 mm 0 mps 684 mmHg 90%
    03:00 +19°C° 0 mm 0 mps 683 mmHg 91%
    04:00 +19°C° 0 mm 0 mps 683 mmHg 91%
    05:00 +19°C° 0 mm 0 mps 683 mmHg 90%
    06:00 +19°C° 0 mm 0 mps 684 mmHg 88%
    07:00 +20°C° 0 mm 0 mps 684 mmHg 86%
    08:00 +22°C° 0.1 mm 0 mps 685 mmHg 76%
    09:00 +25°C° 0.1 mm 0 mps 686 mmHg 65%
    10:00 +28°C° 0.1 mm 0 mps 687 mmHg 55%
    11:00 +28°C° 0.2 mm 0 mps 687 mmHg 53%
    12:00 +30°C° 0.2 mm 1 mps 686 mmHg 52%
    13:00 +30°C° 0.2 mm 1 mps 686 mmHg 51%
    14:00 +29°C° 0.3 mm 1 mps 685 mmHg 56%
    15:00 +26°C° 0.3 mm 0 mps 684 mmHg 62%
    16:00 +24°C° 0.3 mm 0 mps 684 mmHg 68%
    17:00 +23°C° 0.1 mm 0 mps 684 mmHg 73%
    18:00 +22°C° 0.1 mm 0 mps 684 mmHg 79%
    19:00 +20°C° 0.1 mm 0 mps 684 mmHg 84%
    20:00 +20°C° 0 mm 0 mps 684 mmHg 85%
    21:00 +20°C° 0 mm 0 mps 685 mmHg 86%
    22:00 +22°C° 0 mm 1 mps 685 mmHg 87%
    23:00 +22°C° 0 mm 1 mps 685 mmHg 87%

    Day after tomorrow, 19 November, Monday

    Time Temperature Precipitation Wind Pressure Humidity
    00:00 +22°C° 0 mm 1 mps 684 mmHg 88%
    01:00 +19°C° 0 mm 0 mps 684 mmHg 89%
    02:00 +19°C° 0 mm 0 mps 684 mmHg 89%
    03:00 +19°C° 0 mm 0 mps 684 mmHg 89%
    04:00 +19°C° 0 mm 0 mps 683 mmHg 90%
    05:00 +19°C° 0 mm 0 mps 684 mmHg 88%
    06:00 +19°C° 0 mm 0 mps 684 mmHg 85%
    07:00 +19°C° 0 mm 0 mps 685 mmHg 83%
    08:00 +23°C° 0 mm 0 mps 686 mmHg 71%
    09:00 +26°C° 0 mm 0 mps 687 mmHg 58%
    10:00 +29°C° 0 mm 0 mps 688 mmHg 46%
    11:00 +30°C° 0.2 mm 0 mps 687 mmHg 46%
    12:00 +30°C° 0.2 mm 0 mps 686 mmHg 45%
    13:00 +33°C° 0.2 mm 1 mps 685 mmHg 45%
    14:00 +31°C° 0.2 mm 1 mps 685 mmHg 50%
    15:00 +30°C° 0.2 mm 1 mps 684 mmHg 56%
    16:00 +29°C° 0.2 mm 1 mps 684 mmHg 62%
    17:00 +27°C° 0.4 mm 1 mps 684 mmHg 69%
    18:00 +25°C° 0.4 mm 1 mps 684 mmHg 76%
    19:00 +23°C° 0.4 mm 1 mps 684 mmHg 84%
    20:00 +22°C° 0.1 mm 1 mps 685 mmHg 85%
    21:00 +22°C° 0.1 mm 1 mps 685 mmHg 87%
    22:00 +22°C° 0.1 mm 1 mps 685 mmHg 89%
    23:00 +22°C° 0.1 mm 1 mps 685 mmHg 90%

    20 November, Tuesday

    Time Temperature Precipitation Wind Pressure Humidity
    00:00 +21°C° 0.1 mm 1 mps 685 mmHg 91%
    01:00 +21°C° 0.1 mm 1 mps 684 mmHg 92%
    02:00 +21°C° 0 mm 1 mps 684 mmHg 93%
    03:00 +20°C° 0 mm 1 mps 684 mmHg 94%
    04:00 +20°C° 0 mm 1 mps 683 mmHg 95%
    05:00 +18°C° 0 mm 0 mps 684 mmHg 93%
    06:00 +19°C° 0 mm 0 mps 684 mmHg 91%
    07:00 +19°C° 0 mm 0 mps 685 mmHg 89%
    08:00 +22°C° 0 mm 0 mps 686 mmHg 76%
    09:00 +25°C° 0 mm 0 mps 687 mmHg 63%
    10:00 +28°C° 0 mm 0 mps 687 mmHg 50%
    11:00 +29°C° 0.1 mm 0 mps 687 mmHg 47%
    12:00 +32°C° 0.1 mm 1 mps 686 mmHg 43%
    13:00 +33°C° 0.1 mm 1 mps 685 mmHg 40%
    14:00 +31°C° 0 mm 1 mps 685 mmHg 44%
    15:00 +30°C° 0 mm 1 mps 684 mmHg 48%
    16:00 +29°C° 0 mm 1 mps 683 mmHg 52%
    17:00 +27°C° 0 mm 1 mps 684 mmHg 61%
    18:00 +25°C° 0 mm 1 mps 684 mmHg 71%
    19:00 +23°C° 0 mm 1 mps 684 mmHg 80%
    20:00 +22°C° 0 mm 1 mps 684 mmHg 83%
    21:00 +22°C° 0 mm 1 mps 684 mmHg 86%
    22:00 +21°C° 0 mm 1 mps 685 mmHg 89%
    23:00 +21°C° 0 mm 1 mps 684 mmHg 90%

    21 November, Wednesday

    Time Temperature Precipitation Wind Pressure Humidity
    00:00 +21°C° 0 mm 1 mps 684 mmHg 91%
    01:00 +21°C° 0 mm 1 mps 684 mmHg 92%
    02:00 +20°C° 0 mm 1 mps 684 mmHg 92%
    03:00 +20°C° 0 mm 1 mps 683 mmHg 93%
    04:00 +19°C° 0 mm 1 mps 683 mmHg 93%
    05:00 +20°C° 0 mm 1 mps 684 mmHg 90%
    06:00 +20°C° 0 mm 1 mps 684 mmHg 87%
    07:00 +20°C° 0 mm 1 mps 684 mmHg 83%
    08:00 +21°C° 0 mm 0 mps 685 mmHg 69%
    09:00 +24°C° 0 mm 0 mps 686 mmHg 55%
    10:00 +27°C° 0 mm 0 mps 687 mmHg 41%
    11:00 +30°C° 0 mm 1 mps 686 mmHg 39%
    12:00 +31°C° 0 mm 1 mps 685 mmHg 37%
    13:00 +32°C° 0 mm 1 mps 685 mmHg 35%
    14:00 +30°C° 0 mm 1 mps 684 mmHg 41%
    15:00 +29°C° 0 mm 1 mps 684 mmHg 47%
    16:00 +28°C° 0 mm 1 mps 683 mmHg 53%
    17:00 +26°C° 0 mm 1 mps 683 mmHg 62%
    18:00 +24°C° 0 mm 1 mps 684 mmHg 70%
    19:00 +22°C° 0 mm 1 mps 684 mmHg 79%
    20:00 +22°C° 0 mm 1 mps 684 mmHg 82%
    21:00 +21°C° 0 mm 1 mps 684 mmHg 84%
    22:00 +20°C° 0 mm 1 mps 684 mmHg 87%
    23:00 +20°C° 0 mm 1 mps 684 mmHg 89%

    22 November, Thursday

    Time Temperature Precipitation Wind Pressure Humidity
    00:00 +20°C° 0 mm 1 mps 683 mmHg 90%
    01:00 +19°C° 0 mm 1 mps 683 mmHg 92%
    02:00 +19°C° 0 mm 1 mps 683 mmHg 92%
    03:00 +19°C° 0 mm 1 mps 683 mmHg 93%
    04:00 +19°C° 0 mm 1 mps 683 mmHg 93%
    05:00 +20°C° 0 mm 1 mps 683 mmHg 91%
    06:00 +20°C° 0 mm 1 mps 684 mmHg 89%
    07:00 +21°C° 0 mm 1 mps 684 mmHg 87%
    08:00 +22°C° 0 mm 1 mps 685 mmHg 80%
    09:00 +24°C° 0 mm 1 mps 685 mmHg 73%
    10:00 +25°C° 0 mm 1 mps 686 mmHg 66%
    11:00 +25°C° 0.1 mm 1 mps 685 mmHg 68%
    12:00 +25°C° 0.1 mm 1 mps 684 mmHg 69%
    13:00 +25°C° 0.1 mm 1 mps 684 mmHg 71%
    14:00 +25°C° 0 mm 1 mps 683 mmHg 72%
    15:00 +24°C° 0 mm 1 mps 683 mmHg 73%
    16:00 +24°C° 0 mm 1 mps 683 mmHg 74%
    17:00 +23°C° 0 mm 1 mps 683 mmHg 79%
    18:00 +22°C° 0 mm 1 mps 683 mmHg 83%
    19:00 +20°C° 0 mm 1 mps 684 mmHg 87%
    20:00 +20°C° 0 mm 1 mps 684 mmHg 88%
    21:00 +20°C° 0 mm 1 mps 684 mmHg 88%
    22:00 +20°C° 0 mm 1 mps 684 mmHg 89%
    23:00 +20°C° 0 mm 1 mps 683 mmHg 89%
    Show more